Location: Airy Hill
(13.1833°N, 59.5500°W)
Time: 09:23:34
(UTC+00:00)

Daily predictions for brighter satellites

Satellite Brightness Start Highest point End
(mag) Time Altitude Azimuth Time Altitude Azimuth Time Altitude Azimuth
Cosmos 1975 3.2 22:10:18 10° S 22:14:15 70° W 22:18:11 10° N
Envisat 3.1 22:11:00 10° SSE 22:15:57 55° ENE 22:20:54 10° N
SWIFT 2.3 22:14:10 10° WNW 22:18:23 85° NNE 22:22:36 10° ESE
Cosmos 1544 4.0 22:15:35 10° SSE 22:18:34 25° E 22:21:33 10° NE
GPS 2-14 Rocket1 4.0 22:17:52 10° WNW 22:21:15 29° N 22:24:35 10° NE
Cosmos 2227 Rocket 3.4 22:18:24 10° SSE 22:22:19 19° ESE 22:26:14 10° ENE
Cosmos 2219 3.6 22:17:06 10° S 22:22:26 41° ESE 22:27:46 10° NE
Meteor 1-12 Rocket 4.4 22:17:22 10° S 22:23:04 57° E 22:28:39 10° NNE
ISS -1.9 22:20:21 10° WSW 22:23:22 32° NW 22:26:23 10° NNE
Cosmos 2360 Rocket 3.0 22:20:56 10° NNE 22:25:48 30° ENE 22:30:40 10° SE
Meteor 2-9 Rocket 4.3 22:20:22 10° S 22:26:14 83° E 22:32:00 10° N
Cosmos 1842 4.5 22:28:41 10° NNE 22:31:43 21° E 22:34:44 10° SE
Cosmos 494 Rocket 4.2 22:27:02 10° NNW 22:32:16 79° WSW 22:37:31 10° S
Cosmos 2297 Rocket 3.0 22:28:26 10° SSE 22:33:09 28° ESE 22:37:52 10° NE
SAR-Lupe-2 4.1 22:31:32 10° NE 22:34:47 34° E 22:38:03 10° SSE
GP-B 3.7 22:32:50 10° NNE 22:36:48 32° E 22:40:47 10° SSE
YAOGAN 1 2.6 22:32:46 10° SSE 22:37:00 56° ENE 22:41:13 10° N
Okean 2 3.5 22:40:45 10° N 22:44:51 81° W 22:48:58 10° S
Cosmos 1025 Rocket 3.7 22:41:58 10° NNE 22:45:44 31° E 22:49:30 10° SSE
Cosmos 2184 Rocket 4.3 22:40:13 10° NNE 22:46:09 44° E 22:52:07 10° SSE
Cosmos 1441 Rocket 3.1 22:42:19 10° S 22:46:12 89° E 22:50:01 10° N
SL-16 R/B 3.1 22:40:59 10° NNW 22:46:28 52° WSW 22:51:56 10° S
Cosmos 1536 Rocket 3.9 22:43:26 10° NNE 22:47:31 41° E 22:51:36 10° SSE
ARIANE 5 R/B 4.4 22:38:01 10° WSW 22:47:40 21° SSW 22:51:04 10° SSE
YAOGAN 6 2.8 22:45:58 10° S 22:49:31 73° W 22:53:08 10° NNW
Lacrosse 4 Rocket 1.3 22:45:32 10° NNW 22:49:34 89° WSW 22:53:38 10° SSE
CZ-4 R/B 2.0 22:47:38 10° S 22:51:23 55° W 22:55:10 10° NNW
GPS 2-17 Rocket1 3.9 22:47:21 10° WNW 22:51:28 39° N 22:54:24 17° NE
Meteor 2-15 Rocket 4.4 22:46:04 10° S 22:52:12 89° E 22:58:20 10° N
Nadezhda 1 Rocket 3.9 22:50:31 10° S 22:56:38 89° W 23:02:41 10° N
Ariane Rocket 3.3 22:53:33 10° SE 22:58:16 41° ENE 23:03:00 10° N
USA 32 4.2 23:00:37 10° N 23:05:49 74° W 23:11:03 10° S
Genesis I 3.0 23:02:07 10° NNW 23:05:54 69° ENE 23:07:24 34° SE
Cosmos 2056 Rocket 3.5 23:00:42 10° S 23:06:02 66° ESE 23:11:24 10° NNE
CSL-04 Rocket 4.2 23:01:54 10° S 23:07:14 63° WSW 23:12:40 10° NNW
ASC 2 Rocket 4.1 23:01:47 10° WSW 23:10:27 78° SSE 23:13:27 32° ENE
Cosmos 2333 Rocket 3.6 23:07:07 10° NNE 23:10:15 21° NE 23:10:15 21° NE
Cosmos 2327 Rocket 4.4 23:09:25 10° N 23:15:29 61° E 23:21:27 10° SSE
GPS 2-15 Rocket1 3.7 23:13:09 10° SW 23:17:29 38° SSE 23:17:56 37° SE
Cosmos 1378 3.9 23:14:15 10° NNW 23:17:54 52° W 23:21:32 10° S
Lacrosse 5 3.7 23:14:09 10° S 23:15:22 15° SSE 23:15:22 15° SSE
Cosmos 1624 Rocket 3.9 23:13:00 10° SSW 23:18:13 86° WNW 23:23:25 10° NNE
CZ-3B R/B 4.4 23:09:28 10° SSW 23:23:36 26° SSE 23:27:54 21° SE
Cosmos 1939 Rocket 2.9 23:23:03 23° S 23:25:21 73° W 23:29:12 10° NNW
CZ-2D R/B 4.2 23:27:32 10° S 23:31:10 45° W 23:34:48 10° NNW
Lacrosse 5 rocket 4.1 23:35:03 10° W 23:36:40 13° NW 23:38:18 10° NNW
Cosmos 2181 Rocket 3.8 23:32:18 10° S 23:38:24 72° E 23:44:36 10° N
MOS 1 4.1 23:39:02 63° SE 23:39:47 71° ENE 23:45:26 10° N
COSMOS 2455 2.7 23:35:22 10° NNW 23:41:20 73° ENE 23:41:50 69° ESE
GOES 2 Rocket 4.3 23:38:53 10° WSW 23:45:40 87° SSE 23:47:58 53° ENE
Centaur D-1AR AC-48 2.1 23:40:39 10° WNW 23:46:54 60° SW 23:46:54 60° SW
Cosmos 2082 3.6 23:42:31 10° SSW 23:48:13 88° W 23:49:24 59° NNE
Cosmos 2333 4.1 23:46:30 10° NNW 23:52:12 83° WSW 23:52:20 82° SW
CZ-3 Stage 3 3.6 23:50:14 10° W 23:52:32 16° NW 23:52:32 16° NW
